Location: Huisseau
(47.5933°N, 1.4533°E)
Time: 18:24:43
(UTC+00:00)

CENTAUR R/B - Pass Details

Date: 26 November 2025
Orbit: 633 x 1547 km, 63.4° (Epoch: 06 December)

Event Time Altitude Azimuth Distance (km) Brightness Sun altitude
Rises 19:27:53 0° 232° (SW) 3,257 5.9 -33.2°
Reaches altitude 10° 19:30:06 10° 235° (SW) 2,431 5.1 -33.5°
Enters shadow 19:34:43 55° 275° (W) 1,121 3.0 -34.3°
